Skip Page Navigation
NASA JPL Caltech
NASA Logo - Jet Propulsion Laboratory + View the NASA Portal
+ Near-Earth Object (NEO) Program
Search JPL
JPL Home Earth Solar System Stars & Galaxies Technology
JPL Solar System Dynamics
BODIES ORBITS EPHEMERIDES TOOLS PHYSICAL DATA DISCOVERY FAQ SITE MAP
JPL Small-Body Database Browser
Search: [ help ]  
131245 Bakich (2001 FF1)
Classification: Main-belt Asteroid          SPK-ID: 2131245
Ephemeris | Orbit Diagram | Orbital Elements | Physical Parameters | Discovery Circumstances ]

[ show orbit diagram ]
Orbital Elements at Epoch 2456400.5 (2013-Apr-18.0) TDB
Reference: MPO251203 (heliocentric ecliptic J2000)
 Element Value Uncertainty (1-sigma)   Units 
e 0.0812630 n/a  
a 2.7889604 n/a AU
q 2.5623211 n/a AU
i 4.34030 n/a deg
node 188.60849 n/a deg
peri 183.29208 n/a deg
M 14.65662 n/a deg
tp 2456331.2382772
(2013-Feb-07.73827720)
n/a JED
period 1701.2258088
4.66
n/a
n/a
d
yr
n 0.21161212 n/a deg/d
Q 3.0155997 n/a AU
  Orbit Determination Parameters
   # obs. used (total)      239  
   first obs. used      1992-??-??  
   last obs. used      2013-01-01  
   # oppositions      9  
   planetary ephem.      DE403  
   condition code      0  
   fit RMS      0.49  
   data source      MPC:mpu  
   producer      MPCLINUX  

Additional Information
 T_jup = 3.321 

Ephemeris | Orbit Diagram | Orbital Elements | Physical Parameters | Discovery Circumstances ]

Physical Parameter Table
Parameter Symbol Value Units Sigma Reference Notes
absolute magnitude H 15.6 mag n/a MPO251203  

131245 Bakich           Discovered 2001 Mar. 16 by D. Healy at Junk Bond Observatory.
As senior editor of Astronomy, Michael E. Bakich (b. 1953) serves as a science popularizer. A historian of astronomy specializing in the nineteenth century, he spent 30 years in planetaria as educator and consultant. He also wrote several books, including the Cambridge Encyclopedia of Amateur Astronomy.
NOTE: some special characters may not display properly (any characters within {} are an attempt to place the proper accent above a character)
Reference: 20070402/MPCPages.arcLast Updated: 2007-07-05

Alternate Designations
 2001 FF1 = 2003 SQ179 
Ephemeris | Orbit Diagram | Orbital Elements | Physical Parameters | Discovery Circumstances ]
ABOUT SSD CREDITS/AWARDS PRIVACY/COPYRIGHT GLOSSARY LINKS
FirstGov 2013-May-21 06:17 UT
(server date/time)  
NASA Home Page
Site Manager:   Donald K. Yeomans
Webmaster  Alan B. Chamberlin